Probability
39 35 39 35 35 39 39 42 42 42 39 32 35 29 26 29 32 26 19 39 61 58 65 68 71 71 71 74 77 74 77 71 68 65 68 65 65 61 65 71 74 74 68
35 32 32 32 32 32 32 39 39 32 29 32 26 23 19 16 19 19 13 16 45 65 65 65 68 68 68 71 71 77 71 77 74 77 61 65 65 65 61 55 65 68 68
29 26 23 26 19 26 32 26 19 23 23 16 13 16 10 10 10 6 3 3 13 35 61 61 65 68 61 61 65 68 68 74 81 77 65 55 65 65 61 52 55 58 61
23 23 16 13 19 23 26 19 16 13 16 10 6 6 6 6 6 6 0 3 6 6 32 45 52 55 55 52 55 55 61 68 71 74 65 58 52 61 55 55 52 45 52
16 19 13 13 13 16 16 10 10 13 10 6 6 6 6 6 3 0 3 3 3 6 13 23 42 45 45 48 45 42 48 52 58 68 61 61 52 42 45 35 35 39 35
13 16 13 13 13 13 10 10 6 6 6 10 6 6 3 0 0 0 0 3 0 0 0 6 29 32 42 42 39 39 39 45 45 39 42 52 48 39 39 29 29 32 32
10 10 16 16 16 10 10 10 6 6 6 0 3 3 3 3 0 3 0 0 0 0 0 0 3 13 16 29 35 39 39 39 42 39 39 42 42 35 35 32 23 23 26
6 10 13 13 13 13 10 6 6 6 6 3 3 3 3 3 0 0 0 0 0 0 0 0 3 3 0 10 6 26 32 32 32 39 29 29 35 32 32 32 29 26 23
3 6 6 6 10 13 10 3 3 0 0 0 3 3 3 0 0 0 0 0 0 0 0 0 0 0 0 0 0 6 19 16 19 26 26 26 29 26 29 29 32 26 23
3 3 3 3 3 3 3 3 3 0 0 0 0 0 0 0 0 0 0 0 0 0 0 0 0 0 0 0 0 0 6 3 13 16 23 23 23 16 23 23 23 29 26
0 0 3 3 3 3 3 3 3 3 0 0 3 3 3 3 0 0 0 0 0 0 0 0 0 0 0 0 0 0 0 0 3 3 6 16 16 13 13 13 16 19 19
0 0 3 0 0 0 0 0 0 0 0 0 0 0 0 0 0 0 0 0 0 0 0 0 0 0 0 0 0 0 0 0 0 0 3 3 3 13 13 16 16 13 13
0 0 0 0 0 0 0 0 0 0 0 0 0 0 0 0 0 0 0 0 0 0 0 0 0 0 0 0 0 0 0 0 0 0 0 3 3 3 6 13 13 10 10
0 0 0 0 0 0 0 0 0 0 0 0 0 0 0 0 0 0 0 0 0 0 0 0 0 0 0 0 0 0 0 0 0 0 0 0 0 3 3 3 6 6 10
0 0 0 0 0 0 0 0 0 0 0 0 0 0 0 0 0 0 0 0 0 0 0 0 0 0 0 0 0 0 0 0 0 0 0 0 0 0 0 3 0 0 0
0 0 0 0 0 0 0 0 0 0 0 0 0 0 0 0 0 0 0 0 0 0 0 0 0 0 0 0 0 0 0 0 0 0 0 0 0 0 0 0 0 0 0
0 0 0 0 0 0 0 0 0 0 0 0 0 0 0 0 0 0 0 0 0 0 0 0 0 0 0 0 0 0 0 0 0 0 0 0 0 0 0 0 0 0 0
0 0 0 0 0 0 0 0 0 0 0 0 0 0 0 0 0 0 0 0 0 0 0 0 0 0 0 0 0 0 0 0 0 0 0 0 0 0 0 0 0 0 0
0 0 0 0 0 0 0 0 0 0 0 0 0 0 0 0 0 0 0 0 0 0 0 0 0 0 0 0 0 0 0 0 0 0 0 0 0 0 0 0 0 0 0
0 0 0 0 0 0 0 0 0 0 0 0 0 0 0 0 0 0 0 0 0 0 0 0 0 0 0 0 0 0 0 0 0 0 0 0 0 0 0 0 0 0 0
0 0 0 0 0 0 0 0 0 0 0 0 0 0 0 0 0 0 0 0 0 0 0 0 0 0 0 0 0 0 0 0 0 0 0 0 0 0 0 0 0 0 0
0 0 0 0 0 0 0 0 0 0 0 0 0 0 0 0 0 0 0 0 0 0 0 0 0 0 0 0 0 0 0 0 0 0 0 0 0 0 0 0 0 0 0
0 0 0 0 0 0 0 0 0 0 0 0 0 0 0 0 0 0 0 0 0 0 0 0 0 0 0 0 0 0 0 0 0 0 0 0 0 0 0 0 0 0 0
0 0 0 0 0 0 0 0 0 0 0 0 0 0 0 0 0 0 0 0 0 0 0 0 0 0 0 0 0 0 0 0 0 0 0 0 0 0 0 0 0 0 0
0 0 0 0 0 0 0 0 0 0 0 0 0 0 0 0 0 0 0 0 0 0 0 0 0 0 0 0 0 0 0 0 0 0 0 0 0 0 0 0 0 0 0
0 0 0 0 0 0 0 0 0 0 0 0 0 0 0 0 0 0 0 0 0 0 0 0 0 0 0 0 0 0 0 0 0 0 0 0 0 0 0 0 0 0 0
Height
5820 5819 5817 5816 5814 5813 5812 5811 5811 5810 5809 5809 5808 5808 5808 5808 5808 5809 5810 5810 5811 5812 5813 5814 5815 5816 5817 5819 5820 5822 5824 5825 5826 5828 5829 5831 5833 5834 5836 5838 5840 5843 5845
5814 5813 5812 5810 5809 5808 5806 5806 5805 5804 5804 5803 5803 5802 5802 5802 5802 5803 5804 5804 5805 5806 5807 5808 5809 5810 5811 5813 5814 5816 5817 5819 5820 5822 5824 5825 5827 5829 5831 5833 5835 5837 5839
5808 5807 5806 5804 5803 5802 5800 5799 5799 5798 5798 5797 5797 5797 5796 5796 5796 5796 5797 5798 5799 5800 5801 5802 5803 5804 5805 5806 5808 5809 5811 5813 5814 5816 5817 5819 5821 5823 5825 5827 5829 5831 5833
5802 5801 5800 5798 5797 5795 5794 5793 5793 5793 5792 5791 5791 5790 5790 5790 5790 5790 5790 5791 5792 5793 5794 5795 5796 5797 5798 5799 5801 5802 5804 5806 5807 5809 5811 5812 5814 5816 5818 5820 5822 5824 5827
5796 5795 5793 5792 5790 5789 5788 5787 5787 5786 5786 5785 5784 5784 5784 5784 5784 5784 5784 5785 5785 5786 5787 5788 5789 5790 5791 5793 5794 5795 5797 5799 5800 5802 5804 5805 5807 5809 5811 5813 5815 5818 5820
5789 5788 5786 5785 5783 5782 5781 5780 5780 5779 5779 5779 5778 5778 5777 5777 5777 5777 5778 5778 5778 5779 5779 5780 5782 5783 5784 5785 5786 5788 5789 5791 5793 5795 5796 5798 5799 5801 5803 5805 5808 5811 5813
5782 5780 5779 5778 5777 5775 5774 5774 5773 5773 5772 5772 5771 5771 5771 5770 5771 5771 5771 5771 5771 5772 5772 5773 5774 5775 5776 5778 5779 5780 5782 5783 5785 5787 5788 5790 5792 5794 5795 5798 5800 5803 5805
5776 5774 5772 5771 5770 5768 5767 5767 5766 5765 5765 5765 5764 5764 5764 5764 5764 5764 5764 5764 5764 5764 5765 5765 5766 5767 5768 5770 5771 5772 5774 5776 5777 5779 5780 5782 5784 5786 5788 5790 5792 5795 5797
5769 5767 5765 5764 5763 5761 5761 5760 5759 5758 5758 5758 5757 5757 5757 5757 5757 5757 5756 5756 5756 5756 5757 5757 5758 5759 5760 5761 5762 5764 5765 5767 5769 5770 5772 5773 5775 5777 5779 5782 5784 5786 5789
5762 5761 5759 5758 5756 5755 5754 5753 5752 5751 5750 5750 5750 5749 5749 5749 5749 5750 5749 5748 5748 5748 5749 5750 5750 5751 5752 5753 5754 5756 5757 5759 5760 5762 5764 5765 5767 5769 5771 5773 5775 5778 5781
5755 5754 5752 5751 5750 5749 5748 5746 5745 5744 5743 5742 5742 5742 5742 5742 5741 5741 5742 5741 5741 5741 5741 5742 5742 5743 5744 5745 5746 5748 5749 5750 5752 5753 5755 5757 5759 5760 5762 5764 5766 5769 5772
5748 5747 5746 5745 5744 5742 5741 5740 5739 5738 5737 5736 5735 5735 5735 5734 5734 5734 5733 5733 5733 5733 5733 5733 5734 5735 5736 5737 5738 5739 5740 5742 5743 5745 5747 5748 5750 5751 5753 5755 5757 5760 5763
5742 5741 5740 5738 5737 5736 5735 5733 5732 5730 5730 5729 5728 5728 5727 5726 5726 5726 5725 5725 5725 5725 5725 5725 5725 5726 5727 5728 5729 5731 5732 5733 5734 5736 5737 5739 5741 5742 5744 5746 5748 5751 5754
5736 5735 5734 5733 5731 5730 5728 5726 5725 5724 5723 5722 5722 5721 5720 5719 5718 5718 5717 5717 5717 5717 5717 5717 5717 5717 5718 5719 5720 5721 5723 5724 5726 5727 5728 5730 5731 5733 5735 5737 5739 5742 5745
5730 5729 5728 5727 5725 5724 5722 5720 5719 5717 5716 5716 5715 5714 5713 5712 5711 5710 5709 5709 5709 5708 5709 5709 5709 5709 5709 5710 5711 5712 5713 5715 5716 5718 5719 5720 5722 5723 5725 5727 5729 5732 5735
5725 5724 5723 5721 5719 5717 5716 5714 5713 5711 5710 5709 5708 5707 5706 5705 5704 5703 5702 5701 5700 5700 5700 5701 5700 5700 5700 5701 5701 5702 5704 5705 5707 5708 5709 5711 5712 5713 5715 5717 5719 5722 5725
5720 5718 5717 5715 5713 5712 5710 5709 5707 5706 5704 5703 5701 5700 5699 5697 5696 5695 5694 5693 5692 5692 5691 5691 5691 5691 5691 5691 5692 5693 5694 5695 5696 5698 5700 5701 5702 5703 5705 5707 5709 5712 5715
5715 5713 5712 5710 5708 5706 5705 5703 5702 5700 5699 5697 5696 5694 5693 5691 5689 5688 5686 5686 5684 5683 5682 5682 5681 5682 5682 5682 5682 5683 5684 5685 5686 5687 5689 5691 5692 5694 5695 5697 5699 5702 5705
5711 5709 5707 5705 5703 5701 5700 5698 5696 5695 5693 5691 5689 5688 5686 5684 5683 5681 5680 5678 5677 5675 5674 5673 5672 5672 5672 5672 5673 5674 5674 5675 5676 5677 5678 5680 5682 5684 5686 5687 5690 5692 5695
5706 5704 5702 5700 5698 5696 5694 5693 5691 5689 5687 5685 5683 5681 5680 5678 5676 5675 5673 5671 5669 5668 5666 5665 5664 5663 5663 5663 5664 5664 5665 5666 5666 5667 5668 5670 5672 5674 5676 5678 5680 5682 5684
5701 5699 5697 5695 5693 5691 5689 5688 5686 5683 5681 5679 5677 5675 5673 5671 5670 5668 5666 5664 5662 5660 5658 5657 5656 5655 5655 5655 5655 5656 5656 5657 5657 5658 5659 5661 5662 5664 5665 5667 5669 5671 5674
5697 5695 5692 5690 5688 5686 5685 5682 5680 5678 5676 5673 5671 5669 5667 5665 5663 5662 5659 5657 5655 5653 5651 5651 5649 5648 5648 5648 5648 5648 5648 5649 5649 5650 5650 5651 5653 5654 5656 5658 5659 5661 5663
5693 5691 5688 5686 5684 5682 5680 5678 5676 5674 5671 5668 5666 5664 5662 5659 5657 5655 5653 5651 5649 5646 5645 5644 5643 5642 5642 5641 5641 5641 5640 5641 5641 5641 5642 5643 5644 5645 5646 5647 5649 5651 5653
5689 5687 5685 5682 5680 5679 5676 5674 5672 5670 5667 5664 5662 5659 5657 5654 5652 5650 5648 5645 5643 5641 5639 5638 5637 5636 5635 5634 5634 5633 5633 5633 5633 5633 5633 5634 5635 5636 5637 5638 5639 5641 5642
5685 5684 5682 5680 5678 5676 5673 5671 5668 5666 5664 5661 5658 5655 5653 5650 5647 5644 5642 5640 5638 5636 5634 5632 5631 5630 5629 5627 5627 5626 5626 5625 5625 5625 5625 5625 5626 5627 5627 5628 5629 5630 5632
5682 5681 5679 5677 5675 5673 5671 5668 5665 5663 5660 5657 5655 5651 5649 5646 5643 5640 5637 5635 5633 5631 5629 5627 5625 5624 5623 5621 5620 5619 5618 5618 5617 5617 5617 5617 5617 5618 5619 5619 5620 5621 5622
Wind_Speed
23 23 22 23 23 23 23 23 24 24 23 23 24 24 26 26 26 25 25 25 25 25 25 25 25 25 25 25 25 25 25 25 24 24 24 24 24 24 25 25 25 24 23
23 23 23 24 24 23 23 24 24 23 24 24 24 24 26 26 27 26 26 26 25 26 26 26 26 25 26 26 26 26 26 26 26 26 25 25 25 25 26 26 26 25 25
25 24 25 25 25 25 25 24 23 23 23 24 25 24 25 26 27 26 27 27 26 26 26 26 27 27 27 27 27 27 27 28 27 27 27 27 26 26 27 27 27 27 27
26 25 26 25 25 26 25 24 24 24 24 24 24 24 24 24 25 25 26 26 26 26 26 27 27 27 28 28 28 28 29 29 28 29 28 28 28 28 28 28 28 29 29
27 26 26 26 25 26 25 24 24 24 25 25 25 25 25 24 24 25 26 26 26 27 27 27 28 28 28 28 28 29 29 29 29 29 29 29 29 29 29 30 30 30 31
26 25 26 25 25 25 24 24 24 24 25 25 25 25 25 25 25 26 26 26 27 27 27 27 28 29 30 29 29 29 30 30 30 30 30 30 30 29 30 31 31 31 32
27 26 25 26 25 25 24 25 24 25 25 25 26 26 25 25 25 25 26 27 28 28 28 28 28 29 30 31 31 30 30 30 31 31 31 31 31 31 30 31 32 32 32
27 26 26 26 25 24 24 25 25 25 25 25 26 26 25 26 26 26 27 27 28 29 29 29 30 29 30 31 31 31 32 31 32 32 32 32 32 32 31 31 32 34 33
26 26 26 25 24 24 24 25 25 26 26 26 26 26 25 25 26 26 27 27 28 29 29 30 29 29 30 31 31 31 32 32 32 32 32 32 33 33 33 33 33 34 35
26 24 24 24 24 24 24 24 24 25 26 25 26 26 26 26 27 26 27 27 28 28 29 29 29 29 30 30 30 31 31 32 33 32 32 33 34 34 34 34 34 35 35
25 24 23 23 24 24 24 24 24 25 24 24 24 25 26 27 27 26 26 27 27 28 28 29 29 30 30 30 31 31 31 31 32 33 33 34 35 35 35 35 35 35 36
24 23 23 23 23 23 23 23 24 24 24 24 24 25 26 26 26 27 27 27 27 28 29 29 30 31 31 31 31 31 32 31 32 32 33 34 35 35 35 36 36 36 36
23 22 22 23 23 23 23 24 24 24 24 24 24 25 25 25 26 27 27 28 28 28 29 30 30 32 32 33 33 33 33 32 32 32 33 34 35 35 36 36 36 37 36
21 22 22 22 23 22 23 23 23 24 24 25 25 25 25 26 26 26 27 27 27 27 28 29 30 31 32 32 34 34 35 34 34 33 33 34 35 35 37 37 37 38 37
20 20 21 22 22 22 22 22 21 22 23 24 25 26 26 25 26 25 25 26 27 27 27 28 30 31 31 32 33 33 34 34 33 33 34 35 36 36 37 37 37 38 38
20 21 21 21 21 21 21 20 21 21 22 23 24 25 25 25 25 25 25 25 26 26 28 29 29 30 31 32 33 33 34 33 33 33 34 35 36 36 37 37 38 38 39
20 20 19 20 20 19 19 19 20 20 21 21 22 22 23 24 24 24 24 24 25 26 28 29 30 30 31 31 32 32 33 34 34 34 34 34 34 34 35 36 37 38 39
18 18 18 18 18 18 18 19 20 21 21 21 21 22 22 23 23 23 24 24 25 26 27 27 29 30 30 30 31 32 32 33 33 34 34 34 34 34 34 35 36 37 39
18 18 18 18 18 18 18 19 20 21 21 22 22 22 21 22 22 22 23 23 23 24 25 25 26 27 28 29 29 30 31 32 32 33 34 34 34 34 35 35 35 37 38
18 18 18 18 19 19 19 19 20 20 20 21 22 21 20 21 21 22 22 22 22 22 23 23 24 25 26 26 27 29 30 31 31 32 33 33 34 34 35 37 37 38 38
17 17 17 18 19 19 18 19 19 20 20 21 20 20 19 20 20 21 22 22 22 22 22 22 23 23 24 25 25 27 28 29 30 30 31 32 33 34 34 35 35 37 38
16 17 18 18 18 18 18 18 18 19 19 18 18 17 18 19 20 21 21 22 22 21 20 20 21 22 23 23 24 26 27 28 28 29 29 31 32 33 33 34 35 35 36
15 16 16 17 17 16 16 17 18 18 18 17 17 17 18 19 20 20 20 21 21 21 20 20 20 20 20 21 22 24 26 27 27 27 28 29 30 31 32 33 34 34 35
13 14 15 15 15 15 15 16 17 17 16 17 17 18 19 20 20 20 21 21 20 20 20 19 19 20 20 20 21 23 24 25 27 27 27 28 30 30 30 31 33 33 34
13 14 14 14 15 15 16 16 16 16 16 17 18 19 19 19 19 20 20 19 19 19 20 19 19 20 20 21 21 22 23 24 25 26 27 27 27 29 29 30 30 31 33
13 13 13 14 14 15 15 16 16 16 17 18 18 19 19 19 19 19 19 18 18 18 19 19 19 19 20 21 21 22 23 24 24 24 25 25 26 27 29 30 30 32 33
Wind_Direction
295 293 291 288 286 284 282 282 283 282 281 281 280 278 274 271 268 264 260 261 259 258 258 258 256 255 255 252 251 250 250 249 248 248 248 247 246 245 244 243 242 240 238
293 294 288 286 286 284 282 281 281 279 278 276 277 277 275 271 267 264 261 260 261 259 258 256 255 254 253 252 251 249 250 250 250 249 249 248 247 246 244 243 244 242 240
291 290 290 288 287 286 283 281 279 278 277 276 276 276 275 273 267 265 263 261 260 259 259 258 256 254 253 251 250 250 250 250 250 250 249 248 247 246 245 244 243 242 241
289 288 290 291 288 288 283 280 279 278 276 276 276 276 276 273 269 267 266 264 262 260 259 258 257 255 253 251 251 251 251 249 249 249 249 249 248 248 246 245 244 242 241
288 288 288 290 288 287 283 278 278 277 276 276 275 275 274 270 268 267 267 266 263 261 260 259 257 255 253 253 253 252 249 249 249 249 250 250 249 249 247 246 245 243 242
288 287 287 287 286 285 281 278 275 274 274 274 274 273 272 271 270 268 267 267 265 262 260 259 258 256 255 254 254 253 251 251 250 250 250 251 249 248 248 246 245 244 243
289 290 289 287 285 283 281 280 276 273 273 273 274 272 271 270 269 268 267 266 264 262 260 259 257 257 258 256 254 253 252 252 252 250 250 250 250 247 246 245 245 244 243
291 290 288 287 284 282 280 280 280 275 273 273 274 272 270 269 270 269 266 265 263 262 261 261 260 258 257 255 254 253 252 251 251 251 250 250 249 248 247 246 245 242 242
291 289 286 284 282 281 281 280 279 276 273 273 273 273 271 267 267 268 268 267 265 263 261 260 259 258 257 255 253 252 251 251 251 251 251 251 250 249 249 246 245 244 243
289 288 288 283 281 281 281 280 279 278 275 273 273 272 271 269 268 267 268 267 266 264 263 261 260 259 258 255 254 253 253 252 251 251 251 252 251 250 250 248 247 244 243
287 287 288 288 284 281 281 282 280 278 279 277 274 272 271 272 271 269 267 267 267 265 262 261 259 259 259 257 255 253 253 254 252 252 252 252 251 251 249 248 247 245 244
288 289 290 291 289 286 285 284 283 282 281 278 276 275 274 273 272 272 271 270 269 266 263 261 259 259 258 256 255 254 253 253 254 254 254 254 252 251 249 247 246 244 244
289 288 290 290 290 287 284 284 283 281 280 280 280 280 279 276 275 274 273 272 270 267 265 263 261 259 258 256 256 254 253 254 255 255 255 255 254 252 251 249 247 245 244
294 291 289 290 290 288 285 285 282 281 280 281 282 281 281 280 278 276 275 274 271 268 266 263 261 262 261 258 257 255 255 255 255 255 255 255 254 253 252 250 249 246 245
295 291 291 292 291 290 289 290 287 285 283 281 281 281 282 281 281 279 277 276 272 269 266 264 263 263 261 259 259 258 255 254 255 255 256 256 255 253 252 251 250 248 247
297 293 291 290 290 291 291 289 290 289 286 285 282 282 283 282 282 281 278 277 273 270 267 265 264 262 260 259 258 257 258 256 256 256 257 256 256 254 252 251 249 249 248
300 298 295 294 294 293 291 292 292 291 290 290 289 287 285 283 283 282 280 278 276 272 270 268 267 265 262 259 257 257 257 256 257 257 258 257 256 255 253 253 251 250 249
300 302 301 298 298 297 296 295 292 293 293 293 293 293 290 288 288 282 281 279 277 274 273 271 268 266 264 260 258 257 257 256 257 258 258 257 256 254 253 252 252 250 249
300 300 300 300 300 301 300 300 300 298 296 295 293 291 292 293 293 288 286 284 281 279 277 273 271 268 264 262 260 258 259 259 258 259 258 257 255 254 253 251 251 251 250
303 302 305 303 303 302 303 304 304 301 300 298 294 293 294 294 293 291 291 289 285 283 280 275 271 269 267 264 264 261 262 262 261 260 259 257 255 254 253 253 252 251 250
304 304 305 306 307 306 305 305 304 303 302 300 298 296 296 296 296 293 293 291 289 286 283 278 274 272 270 266 265 263 263 263 260 259 259 257 255 255 255 254 253 252 252
308 309 309 310 310 310 308 307 306 307 306 306 306 304 303 299 299 295 295 294 293 290 286 282 277 272 271 268 267 264 264 263 261 260 259 258 256 255 255 254 253 251 251
311 313 314 314 313 311 310 310 309 309 311 312 312 311 309 305 303 300 298 296 293 290 288 285 281 279 274 272 271 267 267 265 262 261 259 258 258 257 256 256 253 251 250
314 317 319 318 319 317 315 314 312 313 315 316 316 316 315 311 307 305 303 299 296 293 292 288 280 279 279 276 274 271 269 267 265 264 263 261 258 256 256 255 253 252 252
320 322 321 321 320 318 317 316 317 319 321 320 320 319 318 316 313 313 310 305 301 297 295 293 286 281 280 278 277 275 273 271 268 265 264 263 261 257 256 255 253 253 253
319 320 320 322 322 321 320 320 321 320 321 322 322 322 321 320 319 318 314 309 306 303 297 292 289 285 283 282 281 278 276 273 268 266 265 264 263 261 259 259 258 256 255